Regional Weather Roundup
Issued by NWS

Home | Current Version | Previous Version | Text Only | Print | Product List | Glossary Off
Versions: 1 2 3 4 5 6 7 8 9 10 11 12 13 14 15 16 17 18 19 20 21 22 23 24 25 26 27 28 29 30 31 32 33 34 35 36 37 38 39 40 41 42 43 44 45 46 47 48 49 50

000
ASUS43 KDMX 091707
RWRIA

WEATHER ROUNDUP FOR IOWA
NATIONAL WEATHER SERVICE DES MOINES IA
1200 PM CDT WED JUL 09 2014

NOTE: "FAIR" INDICATES FEW OR NO CLOUDS BELOW 12,000 FEET WITH NO
SIGNIFICANT WEATHER AND/OR OBSTRUCTIONS TO VISIBILITY.

* - THESE STATIONS ARE NOT NWS STATIONS...THUS NOT UNDER NWS
QUALITY CONTROL.  THEY ALSO DO NOT REPORT WEATHER SUCH
AS PRECIPITATION OR FOG.

IAZ001>003-012>014-020>022-031>034-043>046-091800-
   NORTHWEST IOWA

CITY           SKY/WX    TMP DP  RH WIND       PRES   REMARKS
CARROLL *      SUNNY     75  57  53 VRB6      30.07S
CHEROKEE *     MOSUNNY   75  61  60 SW9       30.06S
DENISON *      SUNNY     73  57  56 SW7       30.07R
LE MARS *      PTSUNNY   75  59  57 VRB6      30.07S
ORANGE CITY *  SUNNY     75  57  53 W7        30.07S
SHELDON *      MOSUNNY   75  57  53 SW6G12    30.05S
SIOUX CITY     SUNNY     76  60  57 VRB3      30.07F
SPENCER        MOSUNNY   76  56  49 NW6       30.05S
STORM LAKE *   SUNNY     73  59  60 W9        30.08S
$$

IAZ055>058-069>071-079>083-090>094-091800-
   SOUTHWEST IOWA

CITY           SKY/WX    TMP DP  RH WIND       PRES   REMARKS
ATLANTIC *     SUNNY     75  57  53 VRB5      30.08S
AUDUBON *      SUNNY     79  63  57 SW6       30.09S HX  80
CLARINDA *     SUNNY     77  55  47 CALM      30.10S
COUNCIL BLFS * SUNNY     77  63  61 VRB7      30.08S
CRESTON *      SUNNY     73  55  53 N5        30.09S
HARLAN  *      SUNNY     75  57  53 S6        30.11F
LAMONI         SUNNY     75  53  46 MISG      30.08R
RED OAK *      SUNNY     77  59  53 S6        30.09S
SHENANDOAH *   SUNNY     77  63  61 SW5       30.09S
$$

IAZ047>049-059>061-072>074-084-091800-
   CENTRAL IOWA

CITY           SKY/WX    TMP DP  RH WIND       PRES   REMARKS
AMES           SUNNY     75  54  47 VRB5      30.06R
ANKENY *       SUNNY     75  54  46 NW5       30.06S
CHARITON *     SUNNY     73  55  53 N6        30.08S
DES MOINES     SUNNY     76  53  44 VRB5      30.06R
GRINNELL*      SUNNY     72  57  60 NW5       30.06S
KNOXVILLE *    SUNNY     73  55  53 NW10      30.06S
MARSHALLTOWN   SUNNY     74  56  53 NW6       30.05R
PELLA *        SUNNY     75  55  50 CALM      30.08R
PERRY *          N/A     75  57  53 CALM      30.07R
$$

IAZ004>006-015-016-023>025-035-036-091800-
   NORTH CENTRAL IOWA

CITY           SKY/WX    TMP DP  RH WIND       PRES   REMARKS
ALGONA *       SUNNY     75  55  50 W9        30.05F
CLARION *      SUNNY     73  54  49 NW8       30.05S
ESTHERVILLE    PTSUNNY   74  54  49 VRB6      30.04F
FORT DODGE *   SUNNY     73  55  53 W6        30.07S
MASON CITY     SUNNY     75  53  46 W7        30.06S
FOREST CITY *  SUNNY     73  54  49 W8        30.04S
IOWA FALLS *     N/A     73  54  49 NW5       30.06S
$$

IAZ007>011-017>019-026>030-037>042-050>054-066-091800-
   NORTHEAST IOWA

CITY           SKY/WX    TMP DP  RH WIND       PRES   REMARKS
CEDAR RAPIDS   MOSUNNY   73  53  49 NW13      30.03S
CHARLES CITY * SUNNY     72  54  53 NW9       30.04S
CLINTON *      SUNNY     73  55  53 N10G16    30.03S
DECORAH *        N/A    N/A N/A N/A MISG        N/A
DUBUQUE        SUNNY     71  55  56 N14       30.02S
MONTICELLO *   SUNNY     73  55  53 N10       30.02S
OELWEIN *      PTSUNNY   73  57  56 VRB6G14   30.04S
WATERLOO       MOSUNNY   74  54  49 NW9       30.03R
$$

IAZ064-065-067-068-078-091800-
   EAST CENTRAL IOWA

CITY           SKY/WX    TMP DP  RH WIND       PRES   REMARKS
DAVENPORT      SUNNY     74  55  51 NW13      30.02R
IOWA CITY      MOSUNNY   74  55  51 NW12      30.05R
MT. PLEASANT * SUNNY     75  54  46 N9        30.04S
MUSCATINE *    MOSUNNY   75  54  46 NW12      30.03S
QUAD CITIES    SUNNY     76  50  40 NW12G21   30.01R
$$

IAZ062-063-075>077-085>089-095>099-091800-
   SOUTHEAST IOWA

CITY           SKY/WX    TMP DP  RH WIND       PRES   REMARKS
BURLINGTON     MOSUNNY   75  56  51 NW7       30.03R
FAIRFIELD *    SUNNY     73  55  53 N9        30.06R
FORT MADISON * MOSUNNY   77  57  50 NW7       30.05R
KEOKUK *       SUNNY     75  57  53 N13       30.03S
OSKALOOSA *      N/A     73  57  56 N5        30.06S
CENTERVILLE *  SUNNY     75  55  50 N7        30.09R
OTTUMWA        SUNNY     74  57  55 N10       30.06R
WASHINGTON *   MOSUNNY   75  55  50 N12       30.05R
$$

ABBREVIATIONS USED IN REMARKS
   TC - TEMPERATURES IN CELSIUS
  WCI - WIND CHILL INDEX
   HX - HEAT INDEX
  VSB - VISIBILITY
$$




USA.gov is the U.S. government's official web portal to all federal, state and local government web resources and services.